Voltar ao catálogo

QIANFAN-92

AtivoComunicaçõesPO
NORAD 66034·PAYLOAD·🇨🇳 China

Lançado Oct 17, 2025 de Taiyuan Satellite Launch Center

Loading…

Próximas Passagens (próximas 24 horas)

TLE

AtualizadoSource: Space-Track

Época: Sep 14, 2026, 07:30 UTC

1 66034U 25233B   26257.31269255  .00000067  00000-0  84486-4 0  9996
2 66034  89.0029  34.1336 0001959  99.4697 260.6676 13.50998626 45211

Acompanhe QIANFAN-92 em tempo real com AllMySat

Download on the App Store